Regional Weather Roundup
Issued by NWS

Home | Current Version | Previous Version | Graphics & Text | Print | Product List | Glossary On
Versions: 1 2 3 4 5 6 7 8 9 10 11 12 13 14 15 16 17 18 19 20 21 22 23 24 25 26 27 28 29 30 31 32 33 34 35 36 37 38 39 40 41 42 43 44 45 46 47 48 49 50
816
ASUS43 KIND 282009
RWRIN

WEATHER ROUNDUP FOR INDIANA
NATIONAL WEATHER SERVICE INDIANAPOLIS IN
400 PM EDT FRI APR 28 2017

NOTE: "FAIR" INDICATES FEW OR NO CLOUDS BELOW 12,000 FEET WITH NO
SIGNIFICANT WEATHER AND/OR OBSTRUCTIONS TO VISIBILITY.

* - STATION DOES NOT REPORT WEATHER SUCH AS PRECIPITATION OR FOG.

+ - STATION NOT QUALITY CONTROLLED BY THE NATIONAL WEATHER SERVICE.
    USE DATA WITH CAUTION...ESPECIALLY DEWPOINT AND RELATIVE
    HUMIDITY OBSERVATIONS.

INZ001>003-010>013-019-020-282100-
NORTHWEST INDIANA

CITY           SKY/WX    TMP DP  RH WIND       PRES   REMARKS
GARY /AIRPORT/ CLOUDY    61  43  51 SE7       29.91F
KNOX *+        MOSUNNY   61  23  23 S16G24    29.91F
LA PORTE +     CLOUDY    59  46  60 SE12      29.92S
MICHIGAN CITY+ CLOUDY    59  45  58 SE9       29.92R
MONTICELLO +   LGT RAIN  55  51  88 E6        29.88F
RENSSELAER +   LGT RAIN  57  48  72 SE14      29.87F
VALPARAISO     CLOUDY    60  47  61 SE12G17   29.91R

$$

LMZ046-743>745-282100-
SOUTHERN LAKE MICHIGAN

STATION/POSITION TIME  TEMP    WIND        PRES    WAVE
                       AIR SEA DIR/SP/G            HT
                 (UTC) (F)     (DEG/KT/KT) (MB)    (FT)
BURNS HARBOR     1940   59     130/  9/ 15 1013.5R
MICHIGAN CITY    1940   58     120/  7/  9   N/A
5NW MICH CITY    2000   47 47                N/A     1

$$

INZ004-005-014>016-021>024-282100-
NORTH CENTRAL INDIANA

CITY           SKY/WX    TMP DP  RH WIND       PRES   REMARKS
ELKHART        CLOUDY    61  41  48 S12       29.94F
GOSHEN         CLOUDY    61  43  51 S20G26    29.96S
LOGANSPORT +   LGT RAIN  54  50  87 E7        29.91F
PERU/GRISSOM   LGT RAIN  54  54 100 SE7       29.93F
ROCHESTER +    LGT RAIN  59  50  72 SE10      29.94F
SOUTH BEND     CLOUDY    60  44  55 SE12      29.93F
WARSAW +       CLOUDY    59  45  58 S9        29.95F

$$

INZ006>009-017-018-025>027-282100-
NORTHEAST INDIANA

CITY           SKY/WX    TMP DP  RH WIND       PRES   REMARKS
ANGOLA *+      PTSUNNY   59  48  67 S9        29.95F
AUBURN +       CLOUDY    59  45  58 S10G18    30.01R
FORT WAYNE     LGT RAIN  56  49  77 S7        30.00R
HUNTINGTON +   RAIN      54  51  89 SE5       29.98F
KENDALLVILLE + CLOUDY    60  45  58 S10       29.97S

$$

INZ028-029-035-036-043>045-051>053-282100-
WEST CENTRAL INDIANA

CITY           SKY/WX    TMP DP  RH WIND       PRES   REMARKS
CRAWFORDSVL +  CLOUDY    55  54  99 E9        29.88F
GREENCASTLE +  CLOUDY    59  50  72 E9        29.88F
LAFAYETTE      LGT RAIN  53  53 100 SE6       29.89F
TERRE HAUTE    CLOUDY    61  51  70 E13       29.83F

$$

INZ030>032-037>040-046>048-054>057-064-065-282100-
CENTRAL INDIANA

CITY           SKY/WX    TMP DP  RH WIND       PRES   REMARKS
CP ATTERBURY + CLOUDY    63  52  67 SE7       29.92F
COLUMBUS       CLOUDY    64  50  59 E10       29.92F
FISHERS *+     CLOUDY    59  52  77 E5        29.94S
FRANKFORT +    CLOUDY    57  54  89 E10       29.90F
GREENWOOD *+   CLOUDY    63  49  61 E5        29.94S
INDIANAPOLIS   CLOUDY    62  50  64 E8        29.91F
-EAGLE CREEK   CLOUDY    60  49  66 E8        29.92F
KOKOMO +       LGT RAIN  54  51  90 E9        29.93F
MARION +       CLOUDY    54  50  87 E8        29.94F FOG
MT COMFORT *+  CLOUDY    61  48  63 E7        29.94S
SHELBYVILLE    CLOUDY    68  50  52 E10       29.92F
ZIONSVILLE +   CLOUDY    56  51  85 E9        29.93F

$$

INZ033-034-041-042-049-050-058-059-282100-
EAST CENTRAL INDIANA

CITY           SKY/WX    TMP DP  RH WIND       PRES   REMARKS
MUNCIE         CLOUDY    58  51  78 SE10      29.96F
RICHMOND +     CLOUDY    61  50  67 E5        29.98S

$$

INZ060-061-067>069-081>083-085>088-282100-
SOUTHWEST INDIANA

CITY           SKY/WX    TMP DP  RH WIND       PRES   REMARKS
EVANSVILLE     CLOUDY    70  59  68 E10       29.79F
WASHINGTON +   CLOUDY    65  53  65 E14       29.82F

$$

INZ062-063-066-070>080-084-089>092-282100-
SOUTH CENTRAL AND SOUTHEAST INDIANA

CITY           SKY/WX    TMP DP  RH WIND       PRES   REMARKS
BEDFORD +      CLOUDY    64  54  68 E7        29.88F
BLOOMINGTON    CLOUDY    61  51  70 E8        29.88F
MADISON *+     PTSUNNY   73  54  49 E6        29.93F
NORTH VERNON + CLOUDY    68  54  60 E8        29.91
SEYMOUR +      CLOUDY    72  54  53 E8        29.90F

$$





USA.gov is the U.S. government's official web portal to all federal, state and local government web resources and services.